UCA4355 KSGF-KIAH

Flight info

Callsign UCA4355
Flight time 1h 32m
Altitude 32000
Route EOS TUL J87 CVE GUSHR3
Aircraft E45X/M-SABDFGRW/S

Departure

Time 2026-05-05 23:57
Airport Springfield Branson National Airport (KSGF)

Arrival

Time 2026-05-06 01:30
Airport George Bush Intercontinental Airport (KIAH)
Time Latitude Longitude Altitude Speed Heading
2026-05-05 23:43 37.23992 -93.39552 1274 ft 0 kts 292°
2026-05-05 23:52 37.23989 -93.39541 1274 ft 2 kts 292°
2026-05-05 23:52 37.23983 -93.39524 1274 ft 2 kts 305°
2026-05-05 23:52 37.23973 -93.39510 1274 ft 2 kts 323°
2026-05-05 23:53 37.23960 -93.39501 1274 ft 2 kts 341°
2026-05-05 23:53 37.23945 -93.39497 1274 ft 2 kts 358°
2026-05-05 23:53 37.23943 -93.39497 1274 ft 0 kts 359°
2026-05-05 23:54 37.23949 -93.39480 1274 ft 5 kts 82°
2026-05-05 23:54 37.23991 -93.39458 1274 ft 12 kts 11°
2026-05-05 23:55 37.24120 -93.39403 1274 ft 23 kts 22°
2026-05-05 23:55 37.24160 -93.39239 1274 ft 23 kts 108°
2026-05-05 23:55 37.24096 -93.39037 1274 ft 25 kts 111°
2026-05-05 23:55 37.23974 -93.38944 1274 ft 24 kts 198°
2026-05-05 23:56 37.23811 -93.39022 1274 ft 26 kts 202°
2026-05-05 23:56 37.23642 -93.39089 1274 ft 20 kts 169°
2026-05-05 23:56 37.23580 -93.38955 1274 ft 19 kts 111°
2026-05-05 23:56 37.23610 -93.38898 1274 ft 6 kts 19°
2026-05-05 23:57 37.23808 -93.38800 1274 ft 69 kts 22°
2026-05-05 23:57 37.24482 -93.38464 1310 ft 133 kts 23°
2026-05-05 23:57 37.25332 -93.38035 2065 ft 138 kts 24°
2026-05-05 23:57 37.26333 -93.37749 2604 ft 168 kts 358°
2026-05-05 23:58 37.27459 -93.38545 3122 ft 216 kts 316°
2026-05-05 23:58 37.28095 -93.40457 3714 ft 263 kts 281°
2026-05-05 23:58 37.27854 -93.42806 4633 ft 285 kts 250°
2026-05-05 23:58 37.27124 -93.44881 6647 ft 253 kts 243°
2026-05-05 23:59 37.26380 -93.46716 8152 ft 242 kts 242°
2026-05-05 23:59 37.25609 -93.48542 9205 ft 240 kts 242°
2026-05-05 23:59 37.24832 -93.50359 10079 ft 242 kts 242°
2026-05-05 23:59 37.24028 -93.52233 10825 ft 250 kts 242°
2026-05-06 00:00 37.23185 -93.54196 11465 ft 261 kts 243°
2026-05-06 00:00 37.22304 -93.56245 12045 ft 273 kts 242°
2026-05-06 00:00 37.21392 -93.58366 12643 ft 283 kts 243°
2026-05-06 00:00 37.20447 -93.60561 13193 ft 294 kts 243°
2026-05-06 00:01 37.19449 -93.62878 13723 ft 305 kts 243°
2026-05-06 00:01 37.18435 -93.65230 14212 ft 316 kts 243°
2026-05-06 00:01 37.17371 -93.67696 14867 ft 321 kts 243°
2026-05-06 00:01 37.16308 -93.70158 15607 ft 323 kts 243°
2026-05-06 00:02 37.15239 -93.72633 16307 ft 325 kts 243°
2026-05-06 00:02 37.14157 -93.75136 16922 ft 329 kts 244°
2026-05-06 00:02 37.13070 -93.77648 17624 ft 330 kts 244°
2026-05-06 00:02 37.11978 -93.80167 18323 ft 330 kts 244°
2026-05-06 00:03 37.10899 -93.82658 19197 ft 324 kts 244°
2026-05-06 00:03 37.09842 -93.85094 20062 ft 318 kts 244°
2026-05-06 00:03 37.08799 -93.87499 20820 ft 315 kts 244°
2026-05-06 00:03 37.07764 -93.89881 21578 ft 311 kts 245°
2026-05-06 00:04 37.06736 -93.92244 22367 ft 306 kts 245°
2026-05-06 00:04 37.05732 -93.94553 23082 ft 303 kts 245°
2026-05-06 00:04 37.04737 -93.96837 23791 ft 299 kts 245°
2026-05-06 00:04 37.03746 -93.99110 24503 ft 296 kts 245°
2026-05-06 00:05 37.01801 -94.03568 25774 ft 294 kts 246°
2026-05-06 00:05 37.00822 -94.05810 26466 ft 290 kts 246°
2026-05-06 00:05 36.99875 -94.07977 27170 ft 286 kts 246°
2026-05-06 00:06 36.98928 -94.10144 27825 ft 283 kts 247°
2026-05-06 00:06 36.97983 -94.12304 28440 ft 281 kts 247°
2026-05-06 00:06 36.97060 -94.14415 29126 ft 277 kts 247°
2026-05-06 00:06 36.96146 -94.16499 29765 ft 273 kts 248°
2026-05-06 00:07 36.95252 -94.18540 30401 ft 269 kts 247°
2026-05-06 00:07 36.94364 -94.20564 31132 ft 261 kts 248°
2026-05-06 00:07 36.93513 -94.22502 31788 ft 256 kts 248°
2026-05-06 00:07 36.92640 -94.24497 31956 ft 266 kts 248°
2026-05-06 00:08 36.91724 -94.26588 31981 ft 279 kts 248°
2026-05-06 00:08 36.90745 -94.28815 31977 ft 288 kts 247°
2026-05-06 00:08 36.89741 -94.31097 31969 ft 297 kts 247°
2026-05-06 00:09 36.87668 -94.35802 31960 ft 314 kts 247°
2026-05-06 00:09 36.85519 -94.40675 31955 ft 328 kts 246°
2026-05-06 00:10 36.83270 -94.45770 31947 ft 342 kts 245°
2026-05-06 00:10 36.80805 -94.50914 31951 ft 348 kts 245°
2026-05-06 00:11 36.78363 -94.56099 31944 ft 349 kts 246°
2026-05-06 00:11 36.75892 -94.61350 31938 ft 350 kts 246°
2026-05-06 00:12 36.73433 -94.66567 31963 ft 350 kts 245°
2026-05-06 00:12 36.70955 -94.71822 31965 ft 351 kts 245°
2026-05-06 00:13 36.68476 -94.77067 31961 ft 352 kts 245°
2026-05-06 00:13 36.65976 -94.82349 31966 ft 353 kts 245°
2026-05-06 00:14 36.63493 -94.87585 31958 ft 354 kts 245°
2026-05-06 00:14 36.60987 -94.92865 31957 ft 354 kts 245°
2026-05-06 00:15 36.58460 -94.98178 31939 ft 354 kts 245°
2026-05-06 00:15 36.55955 -95.03436 31943 ft 354 kts 245°
2026-05-06 00:16 36.53431 -95.08724 31935 ft 354 kts 245°
2026-05-06 00:16 36.50885 -95.14056 31941 ft 354 kts 245°
2026-05-06 00:17 36.48364 -95.19325 31947 ft 353 kts 244°
2026-05-06 00:17 36.45835 -95.24598 31934 ft 353 kts 244°
2026-05-06 00:18 36.43324 -95.29828 31940 ft 353 kts 244°
2026-05-06 00:18 36.40799 -95.35081 31933 ft 352 kts 245°
2026-05-06 00:19 36.38284 -95.40301 31940 ft 351 kts 244°
2026-05-06 00:19 36.35783 -95.45486 31939 ft 351 kts 245°
2026-05-06 00:20 36.33275 -95.50680 31938 ft 350 kts 244°
2026-05-06 00:20 36.30777 -95.55843 31949 ft 349 kts 245°
2026-05-06 00:21 36.28276 -95.61004 31952 ft 349 kts 245°
2026-05-06 00:21 36.25774 -95.66161 31965 ft 348 kts 243°
2026-05-06 00:22 36.23267 -95.71318 31970 ft 349 kts 244°
2026-05-06 00:22 36.20528 -95.76322 31975 ft 357 kts 235°
2026-05-06 00:22 36.18643 -95.78400 31974 ft 368 kts 226°
2026-05-06 00:23 36.16449 -95.80081 31973 ft 381 kts 218°
2026-05-06 00:23 36.13904 -95.81314 31966 ft 396 kts 209°
2026-05-06 00:23 36.11155 -95.82042 31977 ft 405 kts 204°
2026-05-06 00:24 36.05735 -95.83714 31973 ft 398 kts 208°
2026-05-06 00:24 36.00378 -95.85565 31962 ft 398 kts 209°
2026-05-06 00:25 35.95047 -95.87428 31963 ft 398 kts 209°
2026-05-06 00:25 35.89693 -95.89298 31952 ft 398 kts 209°
2026-05-06 00:26 35.84354 -95.91162 31962 ft 398 kts 209°
2026-05-06 00:26 35.79002 -95.93027 31967 ft 398 kts 209°
2026-05-06 00:27 35.73636 -95.94894 31971 ft 398 kts 208°
2026-05-06 00:27 35.68285 -95.96753 31959 ft 399 kts 209°
2026-05-06 00:28 35.62910 -95.98618 31962 ft 399 kts 209°
2026-05-06 00:28 35.57543 -96.00478 31955 ft 399 kts 209°
2026-05-06 00:29 35.52173 -96.02336 31951 ft 399 kts 209°
2026-05-06 00:29 35.46783 -96.04199 31943 ft 399 kts 209°
2026-05-06 00:30 35.41455 -96.06037 31939 ft 400 kts 209°
2026-05-06 00:30 35.36071 -96.07893 31949 ft 399 kts 209°
2026-05-06 00:31 35.30682 -96.09748 31941 ft 400 kts 208°
2026-05-06 00:31 35.25307 -96.11594 31937 ft 400 kts 208°
2026-05-06 00:32 35.19947 -96.13433 31939 ft 399 kts 209°
2026-05-06 00:32 35.14563 -96.15279 31935 ft 399 kts 208°
2026-05-06 00:33 35.09185 -96.17120 31929 ft 399 kts 209°
2026-05-06 00:33 35.03824 -96.18951 31924 ft 399 kts 209°
2026-05-06 00:34 34.98483 -96.20775 31918 ft 399 kts 209°
2026-05-06 00:34 34.93126 -96.22600 31915 ft 399 kts 209°
2026-05-06 00:35 34.87766 -96.24424 31915 ft 398 kts 209°
2026-05-06 00:35 34.82351 -96.26264 31912 ft 398 kts 209°
2026-05-06 00:36 34.76961 -96.28095 31921 ft 398 kts 208°
2026-05-06 00:36 34.71632 -96.29901 31917 ft 398 kts 208°
2026-05-06 00:37 34.66289 -96.31710 31917 ft 398 kts 208°
2026-05-06 00:37 34.60944 -96.33518 31913 ft 398 kts 209°
2026-05-06 00:38 34.55598 -96.35322 31917 ft 398 kts 209°
2026-05-06 00:38 34.50276 -96.37117 31912 ft 398 kts 208°
2026-05-06 00:39 34.44894 -96.38928 31914 ft 398 kts 208°
2026-05-06 00:39 34.39553 -96.40724 31908 ft 398 kts 209°
2026-05-06 00:40 34.34225 -96.42514 31916 ft 398 kts 208°
2026-05-06 00:40 34.28880 -96.44307 31900 ft 398 kts 208°
2026-05-06 00:41 34.23505 -96.46107 31899 ft 398 kts 208°
2026-05-06 00:41 34.18142 -96.47900 31899 ft 398 kts 208°
2026-05-06 00:42 34.12799 -96.49686 31897 ft 399 kts 208°
2026-05-06 00:42 34.07444 -96.51472 31898 ft 399 kts 208°
2026-05-06 00:43 34.02099 -96.53253 31897 ft 399 kts 208°
2026-05-06 00:43 33.96718 -96.55044 31897 ft 399 kts 208°
2026-05-06 00:44 33.91347 -96.56828 31892 ft 399 kts 208°
2026-05-06 00:44 33.85938 -96.58624 31892 ft 399 kts 208°
2026-05-06 00:45 33.80693 -96.60363 31898 ft 399 kts 208°
2026-05-06 00:45 33.75284 -96.62153 31890 ft 400 kts 208°
2026-05-06 00:46 33.69900 -96.63933 31879 ft 400 kts 208°
2026-05-06 00:46 33.64505 -96.65714 31912 ft 400 kts 207°
2026-05-06 00:47 33.59603 -96.67331 31903 ft 402 kts 207°
2026-05-06 00:47 33.54179 -96.69118 31905 ft 403 kts 207°
2026-05-06 00:48 33.48761 -96.70899 31903 ft 404 kts 207°
2026-05-06 00:48 33.43309 -96.72690 31908 ft 406 kts 207°
2026-05-06 00:49 33.37834 -96.74486 31897 ft 407 kts 207°
2026-05-06 00:49 33.32367 -96.76276 31900 ft 407 kts 207°
2026-05-06 00:50 33.26830 -96.78088 31898 ft 408 kts 207°
2026-05-06 00:50 33.21347 -96.79880 31891 ft 409 kts 207°
2026-05-06 00:51 33.15814 -96.81686 31893 ft 409 kts 207°
2026-05-06 00:51 33.10313 -96.83478 31893 ft 409 kts 206°
2026-05-06 00:52 33.04792 -96.85276 31886 ft 410 kts 207°
2026-05-06 00:52 32.99302 -96.87061 31882 ft 410 kts 206°
2026-05-06 00:53 32.93767 -96.88857 31880 ft 410 kts 206°
2026-05-06 00:53 32.90938 -96.89604 31877 ft 421 kts 200°
2026-05-06 00:53 32.87949 -96.89825 31884 ft 435 kts 192°
2026-05-06 00:53 32.84866 -96.89501 31883 ft 451 kts 183°
2026-05-06 00:54 32.81739 -96.88586 31877 ft 466 kts 175°
2026-05-06 00:54 32.75534 -96.86532 31878 ft 459 kts 178°
2026-05-06 00:55 32.69311 -96.84721 31875 ft 459 kts 179°
2026-05-06 00:55 32.63097 -96.82935 31871 ft 460 kts 179°
2026-05-06 00:56 32.56873 -96.81150 31872 ft 460 kts 179°
2026-05-06 00:56 32.50628 -96.79363 31873 ft 460 kts 179°
2026-05-06 00:57 32.44381 -96.77577 31869 ft 461 kts 179°
2026-05-06 00:57 32.38132 -96.75794 31877 ft 461 kts 179°
2026-05-06 00:58 32.31902 -96.74017 31877 ft 461 kts 179°
2026-05-06 00:58 32.25672 -96.72244 31877 ft 461 kts 179°
2026-05-06 00:59 32.19422 -96.70468 31875 ft 462 kts 179°
2026-05-06 00:59 32.13170 -96.68694 31879 ft 462 kts 179°
2026-05-06 01:00 32.06871 -96.66908 31877 ft 463 kts 179°
2026-05-06 01:00 32.00606 -96.65135 31870 ft 463 kts 179°
2026-05-06 01:01 31.94326 -96.63361 31863 ft 463 kts 179°
2026-05-06 01:01 31.88004 -96.61577 31870 ft 464 kts 179°
2026-05-06 01:02 31.81680 -96.59795 31870 ft 464 kts 178°
2026-05-06 01:02 31.75384 -96.58023 31873 ft 465 kts 178°
2026-05-06 01:03 31.69102 -96.56258 31881 ft 465 kts 178°
2026-05-06 01:03 31.62809 -96.54491 31887 ft 465 kts 178°
2026-05-06 01:04 31.56475 -96.52716 31884 ft 466 kts 178°
2026-05-06 01:04 31.50210 -96.50462 31651 ft 489 kts 167°
2026-05-06 01:04 31.47154 -96.48610 31077 ft 506 kts 160°
2026-05-06 01:05 31.44079 -96.46628 30508 ft 505 kts 162°
2026-05-06 01:05 31.40950 -96.44689 29937 ft 505 kts 162°
2026-05-06 01:05 31.37821 -96.42770 29362 ft 505 kts 162°
2026-05-06 01:05 31.34694 -96.40855 28801 ft 506 kts 162°
2026-05-06 01:06 31.31591 -96.38959 28261 ft 506 kts 162°
2026-05-06 01:06 31.28475 -96.37058 27718 ft 506 kts 162°
2026-05-06 01:06 31.25339 -96.35145 27176 ft 506 kts 162°
2026-05-06 01:06 31.22219 -96.33244 26528 ft 507 kts 162°
2026-05-06 01:07 31.19071 -96.31325 25858 ft 508 kts 161°
2026-05-06 01:07 31.15931 -96.29415 25184 ft 509 kts 161°
2026-05-06 01:07 31.12769 -96.27491 24490 ft 509 kts 161°
2026-05-06 01:07 31.09640 -96.25590 23942 ft 505 kts 161°
2026-05-06 01:08 31.06573 -96.23724 23884 ft 489 kts 161°
2026-05-06 01:08 31.03614 -96.21928 23789 ft 477 kts 161°
2026-05-06 01:08 31.00666 -96.20144 23159 ft 478 kts 160°
2026-05-06 01:08 30.97742 -96.18274 22546 ft 479 kts 159°
2026-05-06 01:09 30.94833 -96.16397 21933 ft 478 kts 159°
2026-05-06 01:09 30.91945 -96.14535 21327 ft 477 kts 158°
2026-05-06 01:09 30.89022 -96.12653 20713 ft 475 kts 158°
2026-05-06 01:09 30.86302 -96.10901 20138 ft 463 kts 158°
2026-05-06 01:10 30.83950 -96.09387 19617 ft 445 kts 158°
2026-05-06 01:10 30.81264 -96.07661 19000 ft 428 kts 158°
2026-05-06 01:10 30.78922 -96.06157 18443 ft 414 kts 158°
2026-05-06 01:10 30.76425 -96.04555 17826 ft 401 kts 158°
2026-05-06 01:11 30.74003 -96.03001 17221 ft 390 kts 158°
2026-05-06 01:11 30.71675 -96.01509 16616 ft 380 kts 158°
2026-05-06 01:11 30.69394 -96.00048 16014 ft 372 kts 158°
2026-05-06 01:11 30.67156 -95.98614 15413 ft 364 kts 157°
2026-05-06 01:12 30.64955 -95.97206 14810 ft 358 kts 157°
2026-05-06 01:12 30.62793 -95.95824 14207 ft 352 kts 157°
2026-05-06 01:12 30.60658 -95.94458 13610 ft 347 kts 157°
2026-05-06 01:12 30.58550 -95.93111 13008 ft 343 kts 156°
2026-05-06 01:13 30.56500 -95.91802 12420 ft 339 kts 156°
2026-05-06 01:13 30.54439 -95.90486 11822 ft 335 kts 156°
2026-05-06 01:13 30.52407 -95.89190 11229 ft 331 kts 155°
2026-05-06 01:13 30.50384 -95.87900 10630 ft 327 kts 155°
2026-05-06 01:14 30.46300 -95.86820 9385 ft 284 kts 177°
2026-05-06 01:14 30.44375 -95.86600 8805 ft 273 kts 178°
2026-05-06 01:14 30.42500 -95.86389 8276 ft 276 kts 178°
2026-05-06 01:15 30.40575 -95.86173 7729 ft 278 kts 178°
2026-05-06 01:15 30.38638 -95.85954 7181 ft 280 kts 178°
2026-05-06 01:15 30.36691 -95.85736 6660 ft 281 kts 177°
2026-05-06 01:15 30.34767 -95.85519 6282 ft 276 kts 178°
2026-05-06 01:16 30.32863 -95.85304 6017 ft 267 kts 177°
2026-05-06 01:16 30.31069 -95.85101 5981 ft 253 kts 178°
2026-05-06 01:16 30.29250 -95.84898 5993 ft 266 kts 177°
2026-05-06 01:16 30.27372 -95.84688 5993 ft 275 kts 177°
2026-05-06 01:17 30.25443 -95.84419 5987 ft 284 kts 168°
2026-05-06 01:17 30.23673 -95.83343 6004 ft 297 kts 141°
2026-05-06 01:17 30.22396 -95.81437 6002 ft 306 kts 121°
2026-05-06 01:17 30.21615 -95.79107 5999 ft 310 kts 109°
2026-05-06 01:18 30.21053 -95.76711 5986 ft 311 kts 107°
2026-05-06 01:18 30.20521 -95.74287 5997 ft 311 kts 107°
2026-05-06 01:18 30.19993 -95.71853 6001 ft 313 kts 107°
2026-05-06 01:18 30.19469 -95.69427 5990 ft 313 kts 106°
2026-05-06 01:19 30.18933 -95.66954 5999 ft 313 kts 106°
2026-05-06 01:19 30.18410 -95.64538 5999 ft 314 kts 107°
2026-05-06 01:19 30.17875 -95.62075 5998 ft 314 kts 107°
2026-05-06 01:19 30.17340 -95.59611 5999 ft 315 kts 106°
2026-05-06 01:20 30.16811 -95.57175 5998 ft 315 kts 107°
2026-05-06 01:20 30.16278 -95.54723 5999 ft 314 kts 107°
2026-05-06 01:20 30.15741 -95.52261 6001 ft 314 kts 107°
2026-05-06 01:20 30.15211 -95.49828 6000 ft 314 kts 107°
2026-05-06 01:21 30.14677 -95.47381 5999 ft 314 kts 107°
2026-05-06 01:21 30.14144 -95.44937 5997 ft 314 kts 107°
2026-05-06 01:21 30.13611 -95.42501 5996 ft 314 kts 107°
2026-05-06 01:21 30.13077 -95.40062 5994 ft 314 kts 107°
2026-05-06 01:22 30.12538 -95.37598 5993 ft 314 kts 107°
2026-05-06 01:22 30.12009 -95.35185 5996 ft 314 kts 107°
2026-05-06 01:22 30.11470 -95.32731 5993 ft 314 kts 107°
2026-05-06 01:22 30.10933 -95.30285 5993 ft 314 kts 107°
2026-05-06 01:23 30.10392 -95.27827 5993 ft 314 kts 107°
2026-05-06 01:23 30.09856 -95.25389 5994 ft 313 kts 107°
2026-05-06 01:23 30.09349 -95.22982 5858 ft 304 kts 102°
2026-05-06 01:23 30.09276 -95.20582 5703 ft 292 kts 92°
2026-05-06 01:24 30.09284 -95.18304 5564 ft 280 kts 93°
2026-05-06 01:24 30.09281 -95.16093 5418 ft 269 kts 97°
2026-05-06 01:24 30.08753 -95.14151 5176 ft 247 kts 129°
2026-05-06 01:24 30.07584 -95.12845 4901 ft 223 kts 151°
2026-05-06 01:25 30.06243 -95.12106 4606 ft 208 kts 168°
2026-05-06 01:25 30.04851 -95.11908 4302 ft 195 kts 186°
2026-05-06 01:25 30.03534 -95.12208 3932 ft 191 kts 201°
2026-05-06 01:25 30.02376 -95.12940 3488 ft 193 kts 217°
2026-05-06 01:26 30.01450 -95.14057 3041 ft 196 kts 233°
2026-05-06 01:26 30.00859 -95.15472 2659 ft 197 kts 250°
2026-05-06 01:26 30.00685 -95.16986 2596 ft 184 kts 265°
2026-05-06 01:26 30.00709 -95.18398 2644 ft 164 kts 263°
2026-05-06 01:27 30.00714 -95.19692 2487 ft 162 kts 263°
2026-05-06 01:27 30.00720 -95.20937 2260 ft 150 kts 263°
2026-05-06 01:27 30.00722 -95.22096 1964 ft 140 kts 262°
2026-05-06 01:27 30.00721 -95.23171 1705 ft 142 kts 261°
2026-05-06 01:28 30.00718 -95.24428 1512 ft 168 kts 263°
2026-05-06 01:28 30.00720 -95.25821 1308 ft 177 kts 264°
2026-05-06 01:28 30.00720 -95.27251 1112 ft 179 kts 265°
2026-05-06 01:28 30.00720 -95.28682 944 ft 179 kts 265°
2026-05-06 01:29 30.00720 -95.30137 754 ft 179 kts 265°
2026-05-06 01:29 30.00724 -95.31441 459 ft 153 kts 266°
2026-05-06 01:29 30.00721 -95.32604 202 ft 134 kts 265°
2026-05-06 01:29 30.00721 -95.33594 105 ft 113 kts 265°
2026-05-06 01:30 30.00720 -95.34383 103 ft 82 kts 269°
2026-05-06 01:30 30.00698 -95.34854 103 ft 33 kts 256°
2026-05-06 01:30 30.00599 -95.35091 103 ft 34 kts 238°
2026-05-06 01:30 30.00556 -95.35364 103 ft 35 kts 266°
2026-05-06 01:31 30.00502 -95.35632 103 ft 34 kts 211°
2026-05-06 01:31 30.00273 -95.35655 103 ft 33 kts 176°
2026-05-06 01:31 30.00087 -95.35522 103 ft 31 kts 155°
2026-05-06 01:31 29.99868 -95.35487 103 ft 32 kts 179°
2026-05-06 01:32 29.99642 -95.35485 103 ft 32 kts 179°
2026-05-06 01:32 29.99415 -95.35484 103 ft 32 kts 180°
2026-05-06 01:32 29.99188 -95.35482 103 ft 32 kts 180°
2026-05-06 01:32 29.98958 -95.35481 103 ft 33 kts 180°
2026-05-06 01:33 29.98740 -95.35422 103 ft 32 kts 152°
2026-05-06 01:33 29.98538 -95.35299 103 ft 33 kts 151°
2026-05-06 01:33 29.98374 -95.35154 103 ft 24 kts 91°
2026-05-06 01:33 29.98382 -95.34950 103 ft 26 kts 90°
2026-05-06 01:34 29.98437 -95.34776 103 ft 16 kts 44°
2026-05-06 01:34 29.98468 -95.34739 103 ft 1 kts 46°
2026-05-06 01:34 29.98469 -95.34737 103 ft 0 kts 46°